When you browse on this site, cookies collect data to enhance your experience and personalize the content and advertising you see.
Visit our Privacy Policy to learn more. By continuing to use the site, you agree to this use of cookies and data.
  • In Portugal
  • List of Countries
  • For 7 days
  • Water Temperature
  • Weather Map
  • Weather Widgets
  • user-avatar
    Login

    Hourly Weather Sacapa

    Today, 4 April, Saturday

    Time Temperature Precipitation Wind Pressure Humidity
    00:00 +22°C° 0 mm 1 mps 695 mmHg 79%
    01:00 +19°C° 0 mm 0 mps 695 mmHg 82%
    02:00 +19°C° 0 mm 0 mps 695 mmHg 85%
    03:00 +18°C° 0 mm 0 mps 694 mmHg 88%
    04:00 +18°C° 0 mm 0 mps 694 mmHg 89%
    05:00 +18°C° 0 mm 0 mps 694 mmHg 89%
    06:00 +18°C° 0 mm 0 mps 694 mmHg 89%
    07:00 +22°C° 0 mm 0 mps 695 mmHg 75%
    08:00 +25°C° 0 mm 0 mps 697 mmHg 60%
    09:00 +29°C° 0 mm 0 mps 698 mmHg 46%
    10:00 +33°C° 0 mm 1 mps 697 mmHg 40%
    11:00 +35°C° 0 mm 1 mps 697 mmHg 34%
    12:00 +39°C° 0 mm 1 mps 697 mmHg 29%
    13:00 +37°C° 0 mm 1 mps 696 mmHg 29%
    14:00 +38°C° 0 mm 2 mps 696 mmHg 29%
    15:00 +37°C° 0 mm 2 mps 695 mmHg 30%
    16:00 +35°C° 0 mm 2 mps 695 mmHg 37%
    17:00 +32°C° 0 mm 2 mps 695 mmHg 44%
    18:00 +29°C° 0 mm 2 mps 694 mmHg 51%
    19:00 +28°C° 0 mm 1 mps 695 mmHg 60%
    20:00 +26°C° 0 mm 1 mps 695 mmHg 68%
    21:00 +24°C° 0 mm 1 mps 695 mmHg 77%
    22:00 +23°C° 0 mm 1 mps 695 mmHg 81%
    23:00 +23°C° 0 mm 1 mps 695 mmHg 86%

    Tomorrow, 5 April, Sunday

    Time Temperature Precipitation Wind Pressure Humidity
    00:00 +22°C° 0 mm 1 mps 695 mmHg 90%
    01:00 +20°C° 0 mm 0 mps 695 mmHg 91%
    02:00 +20°C° 0 mm 0 mps 694 mmHg 92%
    03:00 +19°C° 0 mm 0 mps 694 mmHg 93%
    04:00 +19°C° 0 mm 0 mps 694 mmHg 94%
    05:00 +19°C° 0 mm 0 mps 694 mmHg 95%
    06:00 +18°C° 0 mm 0 mps 694 mmHg 95%
    07:00 +22°C° 0 mm 0 mps 696 mmHg 79%
    08:00 +26°C° 0 mm 0 mps 697 mmHg 63%
    09:00 +30°C° 0 mm 0 mps 698 mmHg 46%
    10:00 +34°C° 0 mm 1 mps 698 mmHg 40%
    11:00 +35°C° 0 mm 1 mps 698 mmHg 34%
    12:00 +38°C° 0 mm 2 mps 698 mmHg 28%
    13:00 +38°C° 0 mm 2 mps 697 mmHg 28%
    14:00 +37°C° 0 mm 3 mps 697 mmHg 28%
    15:00 +36°C° 0 mm 3 mps 696 mmHg 28%
    16:00 +34°C° 0 mm 3 mps 696 mmHg 36%
    17:00 +31°C° 0 mm 2 mps 696 mmHg 44%
    18:00 +29°C° 0 mm 2 mps 696 mmHg 51%
    19:00 +27°C° 0 mm 1 mps 696 mmHg 60%
    20:00 +25°C° 0 mm 1 mps 696 mmHg 69%
    21:00 +23°C° 0 mm 1 mps 696 mmHg 77%
    22:00 +23°C° 0 mm 1 mps 696 mmHg 81%
    23:00 +22°C° 0 mm 1 mps 696 mmHg 85%

    Day after tomorrow, 6 April, Monday

    Time Temperature Precipitation Wind Pressure Humidity
    00:00 +20°C° 0 mm 0 mps 696 mmHg 89%
    01:00 +19°C° 0 mm 0 mps 696 mmHg 90%
    02:00 +19°C° 0 mm 0 mps 696 mmHg 91%
    03:00 +19°C° 0 mm 0 mps 696 mmHg 92%
    04:00 +18°C° 0 mm 0 mps 696 mmHg 92%
    05:00 +18°C° 0 mm 0 mps 696 mmHg 93%
    06:00 +18°C° 0 mm 0 mps 696 mmHg 93%
    07:00 +21°C° 0 mm 0 mps 697 mmHg 79%
    08:00 +26°C° 0 mm 1 mps 698 mmHg 65%
    09:00 +30°C° 0 mm 1 mps 699 mmHg 51%
    10:00 +31°C° 0 mm 2 mps 699 mmHg 45%
    11:00 +34°C° 0 mm 2 mps 699 mmHg 39%
    12:00 +36°C° 0 mm 2 mps 698 mmHg 33%
    13:00 +36°C° 0 mm 3 mps 698 mmHg 33%
    14:00 +36°C° 0 mm 3 mps 697 mmHg 33%
    15:00 +36°C° 0 mm 3 mps 697 mmHg 33%
    16:00 +34°C° 0 mm 3 mps 696 mmHg 39%
    17:00 +31°C° 0 mm 2 mps 696 mmHg 45%
    18:00 +29°C° 0 mm 2 mps 696 mmHg 51%
    19:00 +27°C° 0 mm 2 mps 697 mmHg 60%
    20:00 +25°C° 0 mm 1 mps 697 mmHg 68%
    21:00 +23°C° 0 mm 1 mps 697 mmHg 76%
    22:00 +22°C° 0 mm 1 mps 697 mmHg 81%
    23:00 +22°C° 0 mm 1 mps 697 mmHg 86%

    7 April, Tuesday

    Time Temperature Precipitation Wind Pressure Humidity
    00:00 +21°C° 0 mm 1 mps 697 mmHg 91%
    01:00 +21°C° 0 mm 1 mps 697 mmHg 92%
    02:00 +19°C° 0 mm 0 mps 697 mmHg 93%
    03:00 +18°C° 0 mm 0 mps 696 mmHg 93%
    04:00 +18°C° 0 mm 0 mps 697 mmHg 93%
    05:00 +18°C° 0 mm 0 mps 697 mmHg 92%
    06:00 +18°C° 0 mm 0 mps 697 mmHg 91%
    07:00 +21°C° 0 mm 0 mps 698 mmHg 77%
    08:00 +27°C° 0 mm 1 mps 699 mmHg 63%
    09:00 +30°C° 0 mm 1 mps 700 mmHg 49%
    10:00 +32°C° 0 mm 1 mps 700 mmHg 42%
    11:00 +34°C° 0 mm 1 mps 699 mmHg 34%
    12:00 +37°C° 0 mm 2 mps 699 mmHg 27%
    13:00 +37°C° 0 mm 2 mps 698 mmHg 27%
    14:00 +37°C° 0 mm 3 mps 697 mmHg 27%
    15:00 +37°C° 0 mm 3 mps 696 mmHg 27%
    16:00 +35°C° 0 mm 3 mps 696 mmHg 36%
    17:00 +31°C° 0 mm 2 mps 696 mmHg 44%
    18:00 +29°C° 0 mm 2 mps 696 mmHg 53%
    19:00 +27°C° 0 mm 2 mps 697 mmHg 63%
    20:00 +25°C° 0 mm 1 mps 697 mmHg 74%
    21:00 +23°C° 0 mm 1 mps 697 mmHg 84%
    22:00 +22°C° 0 mm 1 mps 697 mmHg 87%
    23:00 +22°C° 0 mm 1 mps 697 mmHg 90%

    8 April, Wednesday

    Time Temperature Precipitation Wind Pressure Humidity
    00:00 +21°C° 0 mm 1 mps 697 mmHg 93%
    01:00 +19°C° 0 mm 0 mps 696 mmHg 94%
    02:00 +19°C° 0 mm 0 mps 696 mmHg 94%
    03:00 +19°C° 0 mm 0 mps 695 mmHg 94%
    04:00 +19°C° 0 mm 0 mps 696 mmHg 93%
    05:00 +19°C° 0 mm 0 mps 696 mmHg 93%
    06:00 +18°C° 0 mm 0 mps 696 mmHg 92%
    07:00 +22°C° 0 mm 0 mps 697 mmHg 79%
    08:00 +27°C° 0 mm 1 mps 698 mmHg 66%
    09:00 +30°C° 0 mm 1 mps 699 mmHg 53%
    10:00 +32°C° 0 mm 1 mps 699 mmHg 46%
    11:00 +34°C° 0 mm 1 mps 699 mmHg 38%
    12:00 +37°C° 0 mm 2 mps 699 mmHg 31%
    13:00 +37°C° 0 mm 2 mps 698 mmHg 30%
    14:00 +37°C° 0 mm 3 mps 697 mmHg 29%
    15:00 +37°C° 0 mm 3 mps 696 mmHg 29%
    16:00 +35°C° 0 mm 3 mps 696 mmHg 35%
    17:00 +32°C° 0 mm 2 mps 696 mmHg 41%
    18:00 +30°C° 0 mm 2 mps 696 mmHg 48%
    19:00 +28°C° 0 mm 1 mps 696 mmHg 57%
    20:00 +26°C° 0 mm 1 mps 696 mmHg 66%
    21:00 +24°C° 0 mm 1 mps 697 mmHg 75%
    22:00 +23°C° 0 mm 1 mps 697 mmHg 80%
    23:00 +23°C° 0 mm 1 mps 696 mmHg 84%

    9 April, Thursday

    Time Temperature Precipitation Wind Pressure Humidity
    00:00 +20°C° 0 mm 0 mps 696 mmHg 89%
    01:00 +20°C° 0 mm 0 mps 696 mmHg 89%
    02:00 +20°C° 0 mm 0 mps 696 mmHg 90%
    03:00 +20°C° 0 mm 0 mps 695 mmHg 90%
    04:00 +20°C° 0 mm 0 mps 695 mmHg 90%
    05:00 +20°C° 0 mm 0 mps 695 mmHg 89%
    06:00 +20°C° 0 mm 0 mps 695 mmHg 88%
    07:00 +23°C° 0 mm 0 mps 696 mmHg 76%
    08:00 +26°C° 0 mm 0 mps 697 mmHg 63%
    09:00 +29°C° 0 mm 0 mps 698 mmHg 51%
    10:00 +34°C° 0 mm 1 mps 698 mmHg 43%
    11:00 +36°C° 0 mm 1 mps 697 mmHg 35%
    12:00 +40°C° 0 mm 1 mps 697 mmHg 27%
    13:00 +40°C° 0 mm 1 mps 696 mmHg 26%
    14:00 +39°C° 0 mm 1 mps 696 mmHg 26%
    15:00 +39°C° 0 mm 2 mps 695 mmHg 25%
    16:00 +37°C° 0 mm 2 mps 695 mmHg 32%
    17:00 +34°C° 0 mm 1 mps 695 mmHg 38%
    18:00 +31°C° 0 mm 1 mps 694 mmHg 45%
    19:00 +29°C° 0 mm 1 mps 695 mmHg 55%
    20:00 +27°C° 0 mm 1 mps 695 mmHg 64%
    21:00 +23°C° 0 mm 0 mps 695 mmHg 74%
    22:00 +23°C° 0 mm 0 mps 695 mmHg 77%
    23:00 +22°C° 0 mm 0 mps 695 mmHg 80%
    Show more